Time,TemperatureF,DewpointF,PressureIn,WindDirection,WindDirectionDegrees,WindSpeedMPH,WindSpeedGustMPH,Humidity,HourlyPrecipIn,Conditions,Clouds,dailyrainin,SoftwareType,DateUTC
2013-08-05 00:03:00,67.3,63.7,29.72,SE,135,11.0,15.0,88,0.00,,,0.06,meteohub,2013-08-05 06:03:00,
2013-08-05 00:07:00,67.3,63.7,29.71,East,90,9.0,11.0,88,0.00,,,0.00,meteohub,2013-08-05 06:07:00,
2013-08-05 00:13:00,67.3,63.9,29.71,NE,45,9.0,14.0,89,0.00,,,0.00,meteohub,2013-08-05 06:13:00,
2013-08-05 00:18:00,67.1,63.7,29.72,East,90,12.0,14.0,89,0.00,,,0.00,meteohub,2013-08-05 06:18:00,
2013-08-05 00:23:00,67.1,63.7,29.71,East,90,11.0,16.0,89,0.00,,,0.00,meteohub,2013-08-05 06:23:00,
2013-08-05 00:28:00,67.1,63.7,29.71,NE,45,9.0,16.0,89,0.00,,,0.00,meteohub,2013-08-05 06:28:00,
2013-08-05 00:33:00,67.1,63.5,29.73,SE,135,9.0,16.0,88,0.00,,,0.00,meteohub,2013-08-05 06:33:00,
2013-08-05 00:38:00,66.9,63.3,29.72,SE,135,7.0,16.0,88,0.00,,,0.00,meteohub,2013-08-05 06:38:00,
2013-08-05 00:43:00,66.9,63.0,29.71,South,180,4.0,15.0,87,0.00,,,0.00,meteohub,2013-08-05 06:43:00,
2013-08-05 00:48:00,66.9,62.6,29.72,East,90,2.0,9.0,86,0.00,,,0.00,meteohub,2013-08-05 06:48:00,
2013-08-05 00:53:00,66.9,63.0,29.71,East,90,4.0,8.0,87,0.00,,,0.00,meteohub,2013-08-05 06:53:00,
2013-08-05 00:58:00,66.9,63.0,29.71,East,90,7.0,7.0,87,0.00,,,0.00,meteohub,2013-08-05 06:58:00,
2013-08-05 01:03:00,66.9,63.0,29.71,East,90,14.0,14.0,87,0.00,,,0.00,meteohub,2013-08-05 07:03:00,
2013-08-05 01:08:00,67.1,62.8,29.70,NE,45,13.0,14.0,86,0.00,,,0.00,meteohub,2013-08-05 07:08:00,
2013-08-05 01:13:00,67.3,63.0,29.71,East,90,14.0,15.0,86,0.00,,,0.00,meteohub,2013-08-05 07:13:00,
2013-08-05 01:18:00,67.3,63.0,29.70,East,90,10.0,15.0,86,0.00,,,0.00,meteohub,2013-08-05 07:18:00,
2013-08-05 01:23:00,67.3,63.0,29.71,East,90,11.0,15.0,86,0.00,,,0.00,meteohub,2013-08-05 07:23:00,
2013-08-05 01:28:00,67.5,63.1,29.70,East,90,14.0,15.0,86,0.00,,,0.00,meteohub,2013-08-05 07:28:00,
2013-08-05 01:33:00,67.5,63.1,29.70,East,90,12.0,15.0,86,0.00,,,0.00,meteohub,2013-08-05 07:33:00,
2013-08-05 01:38:00,67.5,63.1,29.70,East,90,12.0,15.0,86,0.00,,,0.00,meteohub,2013-08-05 07:38:00,
2013-08-05 01:43:00,67.5,63.1,29.70,East,90,11.0,17.0,86,0.00,,,0.00,meteohub,2013-08-05 07:43:00,
2013-08-05 01:48:00,67.5,63.1,29.70,East,90,15.0,17.0,86,0.00,,,0.00,meteohub,2013-08-05 07:48:00,
2013-08-05 01:53:00,67.3,63.0,29.68,East,90,8.0,17.0,86,0.00,,,0.00,meteohub,2013-08-05 07:53:00,
2013-08-05 01:58:00,67.1,62.8,29.69,East,90,15.0,16.0,86,0.00,,,0.00,meteohub,2013-08-05 07:58:00,
2013-08-05 02:04:00,67.1,63.1,29.70,East,90,11.0,15.0,87,0.00,,,0.00,meteohub,2013-08-05 08:04:00,
2013-08-05 02:08:00,66.9,63.0,29.70,NE,45,8.0,15.0,87,0.00,,,0.00,meteohub,2013-08-05 08:08:00,
2013-08-05 02:14:00,66.9,63.0,29.69,NE,45,12.0,15.0,87,0.00,,,0.00,meteohub,2013-08-05 08:14:00,
2013-08-05 02:18:00,66.9,63.0,29.68,NE,45,13.0,15.0,87,0.00,,,0.00,meteohub,2013-08-05 08:18:00,
2013-08-05 02:24:00,66.7,62.8,29.69,NE,45,10.0,15.0,87,0.00,,,0.00,meteohub,2013-08-05 08:24:00,
2013-08-05 02:29:00,66.7,62.8,29.69,East,90,9.0,15.0,87,0.00,,,0.00,meteohub,2013-08-05 08:29:00,
2013-08-05 02:37:00,66.6,63.0,29.69,NE,45,6.0,14.0,88,0.00,,,0.00,meteohub,2013-08-05 08:37:00,
2013-08-05 02:42:00,66.4,62.8,29.69,NE,45,6.0,14.0,88,0.00,,,0.00,meteohub,2013-08-05 08:42:00,
2013-08-05 02:50:00,66.4,62.8,29.69,NE,45,11.0,14.0,88,0.00,,,0.00,meteohub,2013-08-05 08:50:00,
2013-08-05 02:57:00,66.4,62.8,29.70,NE,45,3.0,11.0,88,0.00,,,0.00,meteohub,2013-08-05 08:57:00,
2013-08-05 03:04:00,66.4,62.8,29.70,NE,45,4.0,11.0,88,0.00,,,0.00,meteohub,2013-08-05 09:04:00,
2013-08-05 03:10:00,66.4,62.8,29.70,East,90,5.0,8.0,88,0.00,,,0.00,meteohub,2013-08-05 09:10:00,
2013-08-05 03:14:00,66.4,62.8,29.69,NE,45,4.0,6.0,88,0.00,,,0.00,meteohub,2013-08-05 09:14:00,
2013-08-05 03:21:00,66.4,62.8,29.70,East,90,3.0,6.0,88,0.00,,,0.00,meteohub,2013-08-05 09:21:00,
2013-08-05 03:27:00,66.0,62.6,29.70,North,0,7.0,7.0,89,0.00,,,0.00,meteohub,2013-08-05 09:27:00,
2013-08-05 03:32:00,65.8,62.8,29.70,North,0,7.0,7.0,90,0.00,,,0.00,meteohub,2013-08-05 09:32:00,
2013-08-05 03:37:00,66.0,63.3,29.71,NE,45,12.0,12.0,91,0.00,,,0.00,meteohub,2013-08-05 09:37:00,
2013-08-05 03:42:00,66.0,63.3,29.70,SSW,203,7.0,8.0,91,0.00,,,0.00,meteohub,2013-08-05 09:42:00,
2013-08-05 03:52:00,66.0,63.3,29.71,NE,45,12.0,12.0,91,0.00,,,0.00,meteohub,2013-08-05 09:52:00,
2013-08-05 04:00:00,66.2,63.1,29.72,East,90,4.0,13.0,90,0.00,,,0.00,meteohub,2013-08-05 10:00:00,
2013-08-05 04:06:00,66.2,63.1,29.71,NE,45,8.0,12.0,90,0.00,,,0.00,meteohub,2013-08-05 10:06:00,
2013-08-05 04:12:00,66.0,63.3,29.72,East,90,8.0,9.0,91,0.00,,,0.00,meteohub,2013-08-05 10:12:00,
2013-08-05 04:17:00,65.8,63.1,29.72,East,90,7.0,11.0,91,0.00,,,0.00,meteohub,2013-08-05 10:17:00,
2013-08-05 04:22:00,65.7,63.3,29.72,NE,45,8.0,11.0,92,0.00,,,0.00,meteohub,2013-08-05 10:22:00,
2013-08-05 04:27:00,65.1,63.0,29.71,East,90,8.0,11.0,93,0.00,,,0.00,meteohub,2013-08-05 10:27:00,
2013-08-05 04:32:00,65.1,63.3,29.73,East,90,8.0,11.0,94,0.00,,,0.00,meteohub,2013-08-05 10:32:00,
2013-08-05 04:40:00,65.1,63.7,29.72,East,90,6.0,11.0,95,0.00,,,0.00,meteohub,2013-08-05 10:40:00,
2013-08-05 04:49:00,65.1,63.7,29.73,NE,45,8.0,10.0,95,0.00,,,0.00,meteohub,2013-08-05 10:49:00,
2013-08-05 04:56:00,65.1,63.7,29.73,East,90,9.0,9.0,95,0.00,,,0.00,meteohub,2013-08-05 10:56:00,
2013-08-05 05:01:00,65.5,64.0,29.73,East,90,7.0,10.0,95,0.00,,,0.00,meteohub,2013-08-05 11:01:00,
2013-08-05 05:06:00,65.5,64.0,29.74,NE,45,6.0,10.0,95,0.00,,,0.00,meteohub,2013-08-05 11:06:00,
2013-08-05 05:13:00,65.5,64.0,29.73,East,90,8.0,10.0,95,0.00,,,0.00,meteohub,2013-08-05 11:13:00,
2013-08-05 05:18:00,65.5,63.7,29.72,NE,45,7.0,11.0,94,0.00,,,0.00,meteohub,2013-08-05 11:18:00,
2013-08-05 05:26:00,65.5,63.7,29.73,NE,45,6.0,11.0,94,0.00,,,0.00,meteohub,2013-08-05 11:26:00,
2013-08-05 05:32:00,65.5,63.7,29.73,East,90,7.0,9.0,94,0.00,,,0.00,meteohub,2013-08-05 11:32:00,
2013-08-05 05:37:00,65.5,63.7,29.74,East,90,7.0,9.0,94,0.00,,,0.00,meteohub,2013-08-05 11:37:00,
2013-08-05 05:46:00,65.7,63.5,29.74,NE,45,6.0,9.0,93,0.00,,,0.00,meteohub,2013-08-05 11:46:00,
2013-08-05 05:52:00,65.8,63.7,29.74,East,90,5.0,9.0,93,0.00,,,0.00,meteohub,2013-08-05 11:52:00,
2013-08-05 05:57:00,66.2,63.5,29.75,East,90,8.0,9.0,91,0.00,,,0.00,meteohub,2013-08-05 11:57:00,
2013-08-05 06:02:00,66.2,63.5,29.75,East,90,6.0,9.0,91,0.00,,,0.00,meteohub,2013-08-05 12:02:00,
2013-08-05 06:12:00,67.1,63.7,29.75,SE,135,8.0,8.0,89,0.00,,,0.00,meteohub,2013-08-05 12:12:00,
2013-08-05 06:16:00,67.3,63.7,29.76,SE,135,8.0,8.0,88,0.00,,,0.00,meteohub,2013-08-05 12:16:00,
2013-08-05 06:22:00,67.6,63.7,29.76,East,90,8.0,8.0,87,0.00,,,0.00,meteohub,2013-08-05 12:22:00,
2013-08-05 06:27:00,67.5,63.5,29.77,East,90,6.0,8.0,87,0.00,,,0.00,meteohub,2013-08-05 12:27:00,
2013-08-05 06:32:00,68.2,63.5,29.77,NE,45,11.0,11.0,85,0.00,,,0.00,meteohub,2013-08-05 12:32:00,
2013-08-05 06:38:00,68.7,63.3,29.76,SE,135,9.0,13.0,83,0.00,,,0.00,meteohub,2013-08-05 12:38:00,
2013-08-05 06:45:00,69.6,63.9,29.77,East,90,9.0,13.0,82,0.00,,,0.00,meteohub,2013-08-05 12:45:00,
2013-08-05 06:51:00,70.0,63.1,29.76,East,90,9.0,10.0,79,0.00,,,0.00,meteohub,2013-08-05 12:51:00,
2013-08-05 06:57:00,69.8,63.0,29.77,East,90,8.0,9.0,79,0.00,,,0.00,meteohub,2013-08-05 12:57:00,
2013-08-05 07:02:00,70.0,63.1,29.76,East,90,6.0,9.0,79,0.00,,,0.00,meteohub,2013-08-05 13:02:00,
2013-08-05 07:07:00,70.7,63.5,29.77,NE,45,10.0,10.0,78,0.00,,,0.00,meteohub,2013-08-05 13:07:00,
2013-08-05 07:12:00,71.1,63.5,29.77,NE,45,11.0,11.0,77,0.00,,,0.00,meteohub,2013-08-05 13:12:00,
2013-08-05 07:17:00,71.1,63.1,29.75,East,90,5.0,11.0,76,0.00,,,0.00,meteohub,2013-08-05 13:17:00,
2013-08-05 07:21:00,71.4,63.5,29.76,East,90,8.0,11.0,76,0.00,,,0.00,meteohub,2013-08-05 13:21:00,
2013-08-05 07:27:00,71.8,63.5,29.76,East,90,8.0,11.0,75,0.00,,,0.00,meteohub,2013-08-05 13:27:00,
2013-08-05 07:32:00,72.0,63.1,29.75,South,180,8.0,11.0,74,0.00,,,0.00,meteohub,2013-08-05 13:32:00,
2013-08-05 07:37:00,71.8,63.0,29.76,East,90,9.0,11.0,74,0.00,,,0.00,meteohub,2013-08-05 13:37:00,
2013-08-05 07:42:00,72.3,63.9,29.75,NE,45,8.0,11.0,75,0.00,,,0.00,meteohub,2013-08-05 13:42:00,
2013-08-05 07:47:00,72.7,63.5,29.76,East,90,11.0,14.0,73,0.00,,,0.00,meteohub,2013-08-05 13:47:00,
2013-08-05 07:54:00,72.7,63.5,29.75,NE,45,11.0,14.0,73,0.00,,,0.00,meteohub,2013-08-05 13:54:00,
2013-08-05 08:02:00,71.8,63.5,29.75,NE,45,9.0,11.0,75,0.00,,,0.00,meteohub,2013-08-05 14:02:00,
2013-08-05 08:06:00,71.4,63.9,29.75,NE,45,6.0,11.0,77,0.00,,,0.00,meteohub,2013-08-05 14:06:00,
2013-08-05 08:14:00,71.4,63.9,29.73,NE,45,6.0,11.0,77,0.00,,,0.00,meteohub,2013-08-05 14:14:00,
2013-08-05 08:19:00,72.7,63.9,29.74,NE,45,8.0,11.0,74,0.00,,,0.00,meteohub,2013-08-05 14:19:00,
2013-08-05 08:25:00,72.7,63.9,29.74,NE,45,8.0,11.0,74,0.00,,,0.00,meteohub,2013-08-05 14:25:00,
2013-08-05 08:32:00,73.2,64.4,29.74,NE,45,8.0,11.0,74,0.00,,,0.00,meteohub,2013-08-05 14:32:00,
2013-08-05 08:37:00,73.6,64.8,29.74,East,90,10.0,11.0,74,0.00,,,0.00,meteohub,2013-08-05 14:37:00,
2013-08-05 08:47:00,74.3,65.1,29.74,East,90,4.0,11.0,73,0.00,,,0.00,meteohub,2013-08-05 14:47:00,
2013-08-05 08:54:00,75.4,64.6,29.74,NE,45,3.0,10.0,69,0.00,,,0.00,meteohub,2013-08-05 14:54:00,
2013-08-05 08:59:00,76.3,64.9,29.73,NE,45,8.0,10.0,68,0.00,,,0.00,meteohub,2013-08-05 14:59:00,
2013-08-05 09:06:00,76.5,64.8,29.73,East,90,8.0,10.0,67,0.00,,,0.00,meteohub,2013-08-05 15:06:00,
2013-08-05 09:12:00,78.3,65.5,29.73,NE,45,8.0,11.0,65,0.00,,,0.00,meteohub,2013-08-05 15:12:00,
2013-08-05 09:17:00,78.8,64.8,29.72,East,90,10.0,11.0,62,0.00,,,0.00,meteohub,2013-08-05 15:17:00,
2013-08-05 09:22:00,79.2,63.7,29.71,SE,135,15.0,15.0,59,0.00,,,0.00,meteohub,2013-08-05 15:22:00,
2013-08-05 09:27:00,80.1,60.8,29.71,SE,135,17.0,18.0,52,0.00,,,0.00,meteohub,2013-08-05 15:27:00,
2013-08-05 09:31:00,81.0,60.1,29.70,SE,135,21.0,21.0,49,0.00,,,0.00,meteohub,2013-08-05 15:31:00,
2013-08-05 09:37:00,81.0,59.4,29.71,ESE,113,18.0,23.0,48,0.00,,,0.00,meteohub,2013-08-05 15:37:00,
2013-08-05 09:44:00,80.8,59.2,29.71,SE,135,15.0,23.0,48,0.00,,,0.00,meteohub,2013-08-05 15:44:00,
2013-08-05 09:50:00,81.1,61.9,29.71,East,90,11.0,23.0,52,0.00,,,0.00,meteohub,2013-08-05 15:50:00,
2013-08-05 09:57:00,78.1,64.4,29.72,East,90,11.0,19.0,63,0.00,,,0.00,meteohub,2013-08-05 15:57:00,
2013-08-05 10:02:00,77.2,64.6,29.71,NE,45,11.0,18.0,65,0.00,,,0.00,meteohub,2013-08-05 16:02:00,
2013-08-05 10:07:00,76.1,65.7,29.71,NE,45,11.0,18.0,70,0.00,,,0.00,meteohub,2013-08-05 16:07:00,
2013-08-05 10:11:00,75.6,65.5,29.71,East,90,15.0,17.0,71,0.00,,,0.00,meteohub,2013-08-05 16:11:00,
2013-08-05 10:17:00,75.0,65.8,29.70,NE,45,15.0,17.0,73,0.00,,,0.00,meteohub,2013-08-05 16:17:00,
2013-08-05 10:22:00,74.7,65.8,29.70,NE,45,15.0,17.0,74,0.00,,,0.00,meteohub,2013-08-05 16:22:00,
2013-08-05 10:27:00,74.5,66.0,29.70,NE,45,14.0,15.0,75,0.00,,,0.00,meteohub,2013-08-05 16:27:00,
2013-08-05 10:32:00,73.9,65.5,29.71,NE,45,17.0,17.0,75,0.00,,,0.00,meteohub,2013-08-05 16:32:00,
2013-08-05 10:37:00,73.8,65.7,29.70,NE,45,15.0,18.0,76,0.00,,,0.00,meteohub,2013-08-05 16:37:00,
2013-08-05 10:43:00,73.4,65.7,29.69,North,0,15.0,18.0,77,0.00,,,0.00,meteohub,2013-08-05 16:43:00,
2013-08-05 10:49:00,73.4,65.7,29.69,NE,45,17.0,18.0,77,0.00,,,0.00,meteohub,2013-08-05 16:49:00,
2013-08-05 10:55:00,73.4,65.7,29.68,NE,45,13.0,21.0,77,0.00,,,0.00,meteohub,2013-08-05 16:55:00,
2013-08-05 11:00:00,73.6,65.5,29.68,East,90,17.0,23.0,76,0.00,,,0.00,meteohub,2013-08-05 17:00:00,
2013-08-05 11:06:00,74.3,66.2,29.68,NE,45,17.0,23.0,76,0.00,,,0.00,meteohub,2013-08-05 17:06:00,
2013-08-05 11:12:00,74.3,66.2,29.68,NE,45,23.0,24.0,76,0.00,,,0.00,meteohub,2013-08-05 17:12:00,
2013-08-05 11:17:00,74.3,66.2,29.67,NE,45,19.0,27.0,76,0.00,,,0.00,meteohub,2013-08-05 17:17:00,
2013-08-05 11:21:00,74.8,66.7,29.68,NE,45,17.0,27.0,76,0.00,,,0.00,meteohub,2013-08-05 17:21:00,
2013-08-05 11:29:00,75.9,67.1,29.66,NE,45,10.0,27.0,74,0.00,,,0.00,meteohub,2013-08-05 17:29:00,
2013-08-05 11:37:00,75.7,66.9,29.66,North,0,21.0,26.0,74,0.00,,,0.00,meteohub,2013-08-05 17:37:00,
2013-08-05 11:46:00,75.9,67.1,29.66,NE,45,15.0,27.0,74,0.00,,,0.00,meteohub,2013-08-05 17:46:00,
2013-08-05 11:51:00,76.3,67.5,29.65,NE,45,18.0,28.0,74,0.00,,,0.00,meteohub,2013-08-05 17:51:00,
2013-08-05 11:57:00,76.8,67.1,29.65,NE,45,23.0,28.0,72,0.00,,,0.00,meteohub,2013-08-05 17:57:00,
2013-08-05 12:05:00,77.2,67.1,29.65,North,0,15.0,27.0,71,0.00,,,0.00,meteohub,2013-08-05 18:05:00,
2013-08-05 12:10:00,77.5,66.2,29.65,North,0,17.0,27.0,68,0.00,,,0.00,meteohub,2013-08-05 18:10:00,
2013-08-05 12:17:00,77.0,66.9,29.64,North,0,15.0,25.0,71,0.00,,,0.00,meteohub,2013-08-05 18:17:00,
2013-08-05 12:22:00,77.4,66.4,29.63,NE,45,22.0,25.0,69,0.00,,,0.00,meteohub,2013-08-05 18:22:00,
2013-08-05 12:29:00,76.8,66.7,29.64,NE,45,15.0,27.0,71,0.00,,,0.00,meteohub,2013-08-05 18:29:00,
2013-08-05 12:36:00,75.9,66.6,29.63,NE,45,12.0,27.0,73,0.00,,,0.00,meteohub,2013-08-05 18:36:00,
2013-08-05 12:43:00,76.1,67.3,29.63,North,0,15.0,26.0,74,0.00,,,0.00,meteohub,2013-08-05 18:43:00,
2013-08-05 12:54:00,75.6,67.1,29.62,East,90,18.0,26.0,75,0.00,,,0.00,meteohub,2013-08-05 18:54:00,
2013-08-05 13:02:00,75.6,67.1,29.61,North,0,17.0,24.0,75,0.00,,,0.00,meteohub,2013-08-05 19:02:00,
2013-08-05 13:07:00,76.6,67.6,29.61,NE,45,18.0,24.0,74,0.00,,,0.00,meteohub,2013-08-05 19:07:00,
2013-08-05 13:14:00,77.2,67.5,29.61,NE,45,17.0,24.0,72,0.00,,,0.00,meteohub,2013-08-05 19:14:00,
2013-08-05 13:19:00,78.1,67.1,29.61,NE,45,21.0,21.0,69,0.00,,,0.00,meteohub,2013-08-05 19:19:00,
2013-08-05 13:25:00,78.3,66.7,29.60,North,0,12.0,19.0,68,0.00,,,0.00,meteohub,2013-08-05 19:25:00,
2013-08-05 13:33:00,77.9,66.9,29.61,NE,45,23.0,23.0,69,0.00,,,0.00,meteohub,2013-08-05 19:33:00,
2013-08-05 13:38:00,76.3,66.6,29.60,NE,45,25.0,26.0,72,0.00,,,0.00,meteohub,2013-08-05 19:38:00,
2013-08-05 13:44:00,76.5,67.1,29.60,NE,45,18.0,26.0,73,0.00,,,0.00,meteohub,2013-08-05 19:44:00,
2013-08-05 13:54:00,76.1,66.7,29.59,NE,45,17.0,26.0,73,0.00,,,0.00,meteohub,2013-08-05 19:54:00,
2013-08-05 14:02:00,75.2,66.4,29.60,NE,45,21.0,25.0,74,0.00,,,0.00,meteohub,2013-08-05 20:02:00,
2013-08-05 14:08:00,75.2,66.7,29.60,NE,45,22.0,25.0,75,0.00,,,0.00,meteohub,2013-08-05 20:08:00,
2013-08-05 14:13:00,76.1,67.3,29.59,NE,45,23.0,25.0,74,0.00,,,0.00,meteohub,2013-08-05 20:13:00,
2013-08-05 14:19:00,75.4,66.6,29.60,NE,45,19.0,23.0,74,0.00,,,0.00,meteohub,2013-08-05 20:19:00,
2013-08-05 14:27:00,75.0,67.3,29.60,NE,45,18.0,27.0,77,0.00,,,0.00,meteohub,2013-08-05 20:27:00,
2013-08-05 14:32:00,75.2,66.7,29.60,NE,45,21.0,23.0,75,0.00,,,0.00,meteohub,2013-08-05 20:32:00,
2013-08-05 14:37:00,75.0,66.9,29.59,East,90,23.0,23.0,76,0.00,,,0.00,meteohub,2013-08-05 20:37:00,
2013-08-05 14:43:00,75.0,67.3,29.59,NE,45,21.0,24.0,77,0.00,,,0.00,meteohub,2013-08-05 20:43:00,
2013-08-05 14:48:00,75.2,67.1,29.59,SW,225,22.0,24.0,76,0.00,,,0.00,meteohub,2013-08-05 20:48:00,
2013-08-05 14:56:00,75.0,67.3,29.58,NE,45,19.0,24.0,77,0.00,,,0.00,meteohub,2013-08-05 20:56:00,
2013-08-05 15:02:00,75.0,67.6,29.60,NE,45,10.0,23.0,78,0.00,,,0.00,meteohub,2013-08-05 21:02:00,
2013-08-05 15:09:00,75.0,67.6,29.60,NE,45,14.0,23.0,78,0.00,,,0.00,meteohub,2013-08-05 21:09:00,
2013-08-05 15:16:00,74.8,67.8,29.60,SE,135,14.0,23.0,79,0.00,,,0.00,meteohub,2013-08-05 21:16:00,
2013-08-05 15:22:00,74.1,67.6,29.59,NE,45,22.0,22.0,80,0.00,,,0.00,meteohub,2013-08-05 21:22:00,
2013-08-05 15:32:00,73.9,67.5,29.61,NE,45,11.0,22.0,80,0.00,,,0.00,meteohub,2013-08-05 21:32:00,
2013-08-05 15:38:00,74.1,67.6,29.61,NE,45,11.0,22.0,80,0.00,,,0.00,meteohub,2013-08-05 21:38:00,
2013-08-05 15:46:00,73.4,66.9,29.61,NE,45,17.0,22.0,80,0.00,,,0.00,meteohub,2013-08-05 21:46:00,
2013-08-05 15:52:00,73.4,67.3,29.62,NE,45,16.0,22.0,81,0.00,,,0.00,meteohub,2013-08-05 21:52:00,
2013-08-05 15:57:00,73.0,66.9,29.62,NE,45,14.0,21.0,81,0.00,,,0.00,meteohub,2013-08-05 21:57:00,
2013-08-05 16:02:00,72.7,66.6,29.63,East,90,14.0,23.0,81,0.00,,,0.00,meteohub,2013-08-05 22:02:00,
2013-08-05 16:07:00,72.3,66.2,29.62,NE,45,11.0,23.0,81,0.00,,,0.00,meteohub,2013-08-05 22:07:00,
2013-08-05 16:13:00,72.7,66.6,29.62,NE,45,14.0,21.0,81,0.00,,,0.00,meteohub,2013-08-05 22:13:00,
2013-08-05 16:18:00,72.7,66.6,29.63,NE,45,14.0,21.0,81,0.00,,,0.00,meteohub,2013-08-05 22:18:00,
2013-08-05 16:25:00,72.7,66.6,29.62,NE,45,16.0,19.0,81,0.00,,,0.00,meteohub,2013-08-05 22:25:00,
2013-08-05 16:32:00,72.9,66.4,29.64,NE,45,19.0,21.0,80,0.00,,,0.00,meteohub,2013-08-05 22:32:00,
2013-08-05 16:37:00,72.7,66.6,29.62,NE,45,15.0,21.0,81,0.00,,,0.00,meteohub,2013-08-05 22:37:00,
2013-08-05 16:42:00,72.7,66.6,29.64,NE,45,21.0,21.0,81,0.00,,,0.00,meteohub,2013-08-05 22:42:00,
2013-08-05 16:47:00,72.3,66.2,29.63,NE,45,14.0,23.0,81,0.00,,,0.00,meteohub,2013-08-05 22:47:00,
2013-08-05 16:52:00,72.3,66.2,29.63,NE,45,14.0,23.0,81,0.00,,,0.00,meteohub,2013-08-05 22:52:00,
2013-08-05 16:58:00,72.3,66.2,29.64,NE,45,19.0,23.0,81,0.00,,,0.00,meteohub,2013-08-05 22:58:00,
2013-08-05 17:06:00,72.0,66.2,29.64,NE,45,12.0,20.0,82,0.00,,,0.00,meteohub,2013-08-05 23:06:00,
2013-08-05 17:11:00,72.0,66.2,29.65,NE,45,11.0,19.0,82,0.00,,,0.00,meteohub,2013-08-05 23:11:00,
2013-08-05 17:17:00,72.0,65.8,29.65,NE,45,14.0,17.0,81,0.00,,,0.00,meteohub,2013-08-05 23:17:00,
2013-08-05 17:22:00,72.0,65.8,29.65,North,0,11.0,17.0,81,0.00,,,0.00,meteohub,2013-08-05 23:22:00,
2013-08-05 17:27:00,71.6,66.2,29.67,East,90,10.0,15.0,83,0.00,,,0.00,meteohub,2013-08-05 23:27:00,
2013-08-05 17:33:00,71.4,66.4,29.68,East,90,11.0,15.0,84,0.00,,,0.00,meteohub,2013-08-05 23:33:00,
2013-08-05 17:39:00,71.2,66.9,29.68,East,90,11.0,15.0,86,0.01,,,0.01,meteohub,2013-08-05 23:39:00,
2013-08-05 17:44:00,70.9,66.7,29.68,SE,135,5.0,11.0,87,0.01,,,0.01,meteohub,2013-08-05 23:44:00,
2013-08-05 17:50:00,70.7,66.6,29.68,NE,45,3.0,11.0,87,0.02,,,0.02,meteohub,2013-08-05 23:50:00,
2013-08-05 17:56:00,70.7,66.6,29.69,East,90,3.0,11.0,87,0.02,,,0.02,meteohub,2013-08-05 23:56:00,
2013-08-05 18:02:00,70.5,66.7,29.68,SE,135,6.0,12.0,88,0.02,,,0.02,meteohub,2013-08-06 00:02:00,
2013-08-05 18:07:00,70.3,66.6,29.69,NE,45,2.0,12.0,88,0.02,,,0.02,meteohub,2013-08-06 00:07:00,
2013-08-05 18:12:00,70.3,66.6,29.69,NE,45,10.0,10.0,88,0.04,,,0.04,meteohub,2013-08-06 00:12:00,
2013-08-05 18:18:00,70.2,66.7,29.69,NE,45,13.0,13.0,89,0.04,,,0.04,meteohub,2013-08-06 00:18:00,
2013-08-05 18:24:00,70.2,66.4,29.70,North,0,11.0,23.0,88,0.04,,,0.04,meteohub,2013-08-06 00:24:00,
2013-08-05 18:32:00,70.5,66.2,29.70,East,90,14.0,23.0,86,0.04,,,0.04,meteohub,2013-08-06 00:32:00,
2013-08-05 18:37:00,70.5,66.2,29.71,NE,45,4.0,17.0,86,0.02,,,0.04,meteohub,2013-08-06 00:37:00,
2013-08-05 18:42:00,70.5,66.4,29.70,NE,45,4.0,15.0,87,0.01,,,0.04,meteohub,2013-08-06 00:42:00,
2013-08-05 18:47:00,70.3,66.2,29.71,NE,45,11.0,14.0,87,0.01,,,0.04,meteohub,2013-08-06 00:47:00,
2013-08-05 18:52:00,70.3,66.2,29.72,North,0,8.0,14.0,87,0.01,,,0.04,meteohub,2013-08-06 00:52:00,
2013-08-05 18:57:00,70.2,66.0,29.72,NE,45,8.0,11.0,87,0.01,,,0.04,meteohub,2013-08-06 00:57:00,
2013-08-05 19:02:00,69.8,66.4,29.72,NE,45,14.0,14.0,89,0.01,,,0.04,meteohub,2013-08-06 01:02:00,
2013-08-05 19:07:00,69.6,66.6,29.72,NE,45,12.0,14.0,90,0.01,,,0.04,meteohub,2013-08-06 01:07:00,
2013-08-05 19:14:00,69.8,66.0,29.72,NE,45,9.0,18.0,88,0.00,,,0.04,meteohub,2013-08-06 01:14:00,
2013-08-05 19:22:00,69.6,66.2,29.72,NE,45,11.0,18.0,89,0.00,,,0.04,meteohub,2013-08-06 01:22:00,
2013-08-05 19:27:00,69.6,66.6,29.72,NE,45,13.0,17.0,90,0.00,,,0.04,meteohub,2013-08-06 01:27:00,
2013-08-05 19:32:00,69.6,66.6,29.73,North,0,10.0,17.0,90,0.00,,,0.04,meteohub,2013-08-06 01:32:00,
2013-08-05 19:37:00,69.6,66.2,29.73,NE,45,10.0,17.0,89,0.00,,,0.04,meteohub,2013-08-06 01:37:00,
2013-08-05 19:42:00,69.4,66.0,29.73,NE,45,13.0,17.0,89,0.00,,,0.04,meteohub,2013-08-06 01:42:00,
2013-08-05 19:48:00,69.4,66.4,29.73,NE,45,10.0,17.0,90,0.00,,,0.04,meteohub,2013-08-06 01:48:00,
2013-08-05 19:53:00,69.3,66.6,29.73,NE,45,15.0,15.0,91,0.00,,,0.04,meteohub,2013-08-06 01:53:00,
2013-08-05 20:01:00,69.3,66.6,29.73,East,90,14.0,16.0,91,0.00,,,0.04,meteohub,2013-08-06 02:01:00,
2013-08-05 20:07:00,69.3,66.6,29.72,NE,45,4.0,16.0,91,0.00,,,0.04,meteohub,2013-08-06 02:07:00,
2013-08-05 20:12:00,69.3,66.6,29.73,NE,45,8.0,16.0,91,0.00,,,0.04,meteohub,2013-08-06 02:12:00,
2013-08-05 20:17:00,69.4,66.4,29.73,SE,135,7.0,16.0,90,0.00,,,0.04,meteohub,2013-08-06 02:17:00,
2013-08-05 20:22:00,69.4,66.4,29.74,East,90,10.0,16.0,90,0.00,,,0.04,meteohub,2013-08-06 02:22:00,
2013-08-05 20:27:00,69.4,66.0,29.73,North,0,10.0,12.0,89,0.00,,,0.04,meteohub,2013-08-06 02:27:00,
2013-08-05 20:32:00,69.4,66.4,29.74,North,0,11.0,15.0,90,0.00,,,0.04,meteohub,2013-08-06 02:32:00,
2013-08-05 20:37:00,69.4,66.4,29.74,NE,45,8.0,15.0,90,0.00,,,0.04,meteohub,2013-08-06 02:37:00,
2013-08-05 20:44:00,69.3,66.2,29.74,NE,45,9.0,15.0,90,0.00,,,0.04,meteohub,2013-08-06 02:44:00,
2013-08-05 20:52:00,69.4,66.4,29.74,NE,45,7.0,14.0,90,0.00,,,0.04,meteohub,2013-08-06 02:52:00,
2013-08-05 21:00:00,69.4,66.0,29.75,East,90,8.0,10.0,89,0.00,,,0.04,meteohub,2013-08-06 03:00:00,
2013-08-05 21:07:00,69.4,66.0,29.75,NE,45,9.0,11.0,89,0.00,,,0.04,meteohub,2013-08-06 03:07:00,
2013-08-05 21:12:00,69.4,66.0,29.74,NE,45,8.0,11.0,89,0.00,,,0.04,meteohub,2013-08-06 03:12:00,
2013-08-05 21:17:00,69.3,65.8,29.74,NE,45,6.0,9.0,89,0.00,,,0.04,meteohub,2013-08-06 03:17:00,
2013-08-05 21:22:00,69.1,66.0,29.74,NE,45,8.0,10.0,90,0.00,,,0.04,meteohub,2013-08-06 03:22:00,
2013-08-05 21:27:00,69.1,65.7,29.74,NE,45,8.0,12.0,89,0.00,,,0.04,meteohub,2013-08-06 03:27:00,
2013-08-05 21:32:00,69.3,65.5,29.75,NE,45,8.0,12.0,88,0.00,,,0.04,meteohub,2013-08-06 03:32:00,
2013-08-05 21:37:00,69.4,65.7,29.75,NE,45,5.0,12.0,88,0.00,,,0.04,meteohub,2013-08-06 03:37:00,
2013-08-05 21:42:00,69.6,65.7,29.75,East,90,4.0,9.0,87,0.00,,,0.04,meteohub,2013-08-06 03:42:00,
2013-08-05 21:50:00,69.8,65.1,29.75,NE,45,6.0,10.0,85,0.00,,,0.04,meteohub,2013-08-06 03:50:00,
2013-08-05 21:56:00,70.0,64.9,29.75,East,90,8.0,10.0,84,0.00,,,0.04,meteohub,2013-08-06 03:56:00,
2013-08-05 22:01:00,70.0,65.3,29.75,NE,45,4.0,10.0,85,0.00,,,0.04,meteohub,2013-08-06 04:01:00,
2013-08-05 22:02:00,70.0,65.3,29.74,East,90,3.0,10.0,85,0.00,,,0.04,meteohub,2013-08-06 04:02:00,
2013-08-05 22:07:00,69.8,65.1,29.76,East,90,5.0,10.0,85,0.00,,,0.04,meteohub,2013-08-06 04:07:00,
2013-08-05 22:12:00,69.6,65.7,29.75,East,90,7.0,8.0,87,0.00,,,0.04,meteohub,2013-08-06 04:12:00,
2013-08-05 22:17:00,69.6,65.7,29.74,NE,45,5.0,8.0,87,0.00,,,0.04,meteohub,2013-08-06 04:17:00,
2013-08-05 22:22:00,69.6,65.7,29.74,East,90,4.0,8.0,87,0.00,,,0.04,meteohub,2013-08-06 04:22:00,
2013-08-05 22:27:00,69.4,65.5,29.74,East,90,2.0,8.0,87,0.00,,,0.04,meteohub,2013-08-06 04:27:00,
2013-08-05 22:32:00,69.3,65.5,29.74,SE,135,4.0,8.0,88,0.00,,,0.04,meteohub,2013-08-06 04:32:00,
2013-08-05 22:37:00,69.3,65.8,29.74,SE,135,3.0,7.0,89,0.00,,,0.04,meteohub,2013-08-06 04:37:00,
2013-08-05 22:42:00,68.9,65.5,29.74,SE,135,4.0,5.0,89,0.00,,,0.04,meteohub,2013-08-06 04:42:00,
2013-08-05 22:47:00,68.9,65.5,29.73,East,90,0.0,5.0,89,0.00,,,0.04,meteohub,2013-08-06 04:47:00,
2013-08-05 22:52:00,68.7,65.3,29.74,SE,135,1.0,4.0,89,0.00,,,0.04,meteohub,2013-08-06 04:52:00,
2013-08-05 22:58:00,68.7,65.7,29.73,NE,45,2.0,4.0,90,0.00,,,0.04,meteohub,2013-08-06 04:58:00,
2013-08-05 23:03:00,68.7,65.7,29.73,North,0,3.0,3.0,90,0.00,,,0.04,meteohub,2013-08-06 05:03:00,
2013-08-05 23:08:00,68.7,65.7,29.73,East,90,5.0,5.0,90,0.00,,,0.04,meteohub,2013-08-06 05:08:00,
2013-08-05 23:13:00,69.1,65.3,29.71,East,90,4.0,5.0,88,0.00,,,0.04,meteohub,2013-08-06 05:13:00,
2013-08-05 23:18:00,69.3,65.3,29.72,NE,45,3.0,8.0,87,0.00,,,0.04,meteohub,2013-08-06 05:18:00,
2013-08-05 23:23:00,69.4,65.5,29.70,South,180,4.0,8.0,87,0.00,,,0.04,meteohub,2013-08-06 05:23:00,
2013-08-05 23:28:00,69.4,65.5,29.71,East,90,3.0,8.0,87,0.00,,,0.04,meteohub,2013-08-06 05:28:00,
2013-08-05 23:33:00,69.4,65.1,29.69,East,90,1.0,6.0,86,0.00,,,0.04,meteohub,2013-08-06 05:33:00,
2013-08-05 23:38:00,69.4,65.1,29.70,NE,45,4.0,4.0,86,0.00,,,0.04,meteohub,2013-08-06 05:38:00,
2013-08-05 23:43:00,69.4,65.1,29.69,South,180,4.0,4.0,86,0.00,,,0.04,meteohub,2013-08-06 05:43:00,
2013-08-05 23:48:00,69.4,65.5,29.69,North,0,7.0,8.0,87,0.00,,,0.04,meteohub,2013-08-06 05:48:00,
2013-08-05 23:53:00,69.3,65.3,29.69,East,90,6.0,11.0,87,0.00,,,0.04,meteohub,2013-08-06 05:53:00,
2013-08-05 23:58:00,69.3,65.3,29.70,NE,45,3.0,11.0,87,0.00,,,0.04,meteohub,2013-08-06 05:58:00,